Location: *
(38.4303°S, 157.0822°W)
Time: 22:29:14
(UTC+00:00)

SL-08 R/B - Pass Details

Date: 21 May 2024
Orbit: 671 x 733 km, 98.5° (Epoch: 12 June)

Event Time Altitude Azimuth Distance (km) Brightness Sun altitude
Rises 16:56:28 0° 163° (SSE) 3,056 6.6 -6.7°
Reaches altitude 10° 16:58:45 10° 159° (SSE) 2,133 5.8 -6.2°
Maximum altitude 17:03:21 59° 79° (E) 788 4.0 -5.4°
Drops below altitude 10° 17:07:55 10° 359° (N) 2,117 6.1 -4.6°
Sets 17:10:10 0° 355° (N) 3,030 6.8 -4.2°
